Regional Weather Roundup
Issued by NWS

Home | Current Version | Previous Version | Graphics & Text | Print | Product List | Glossary On
Versions: 1 2 3 4 5 6 7 8 9 10 11 12 13 14 15 16 17 18 19 20 21 22 23 24 25 26 27 28 29 30 31 32 33 34 35 36 37 38 39 40 41 42 43 44 45 46 47 48 49 50
000
ASUS43 KMPX 240010
RWRMN
WEATHER ROUNDUP FOR MINNESOTA
NATIONAL WEATHER SERVICE TWIN CITIES/CHANHASSEN MN
700 PM CDT TUE SEP 23 2014


NOTE: "FAIR" INDICATES FEW OR NO CLOUDS BELOW 12,000 FEET WITH NO
SIGNIFICANT WEATHER AND/OR OBSTRUCTIONS TO VISIBILITY. N/A MEANS
CURRENT SKY AND/OR WEATHER CONDITIONS ARE NOT AVAILABLE.

MNZ060>063-068>070-240100-
   Twin Cities Metro

CITY           SKY/WX    TMP DP  RH WIND       PRES   REMARKS
TWIN CITIES    MOCLDY    69  50  50 SE9       30.14S
6HR MIN TEMP:  69; 6HR MAX TEMP:  74;

ST PAUL        MOCLDY    68  53  58 SE8       30.14S
CRYSTAL        MOCLDY    70  49  47 S9        30.12S
BLAINE         MOCLDY    70  54  56 SE7       30.13F
LAKEVILLE      CLOUDY    64  52  63 SE5       30.14S
EDEN PRAIRIE   CLOUDY    69  51  52 SE10      30.12S
6HR MIN TEMP:  68; 6HR MAX TEMP:  75;

SOUTH ST PAUL  MOCLDY    69  51  53 S6        30.14S
LAKE ELMO      FAIR      66  52  59 SE6       30.16S
$$
MNZ001>005-007-008-013>017-022>024-027-028-240100-
   Northwest Minnesota

CITY           SKY/WX    TMP DP  RH WIND       PRES   REMARKS
BEMIDJI        PTCLDY    66  51  57 S7        30.07S
HALLOCK        MOCLDY    73  50  43 S16G22    29.96S
ROSEAU         PTCLDY    66  55  68 S6        30.01S
WARROAD        PTCLDY    68  57  68 S3        30.02S
THIEF RVR FALL PTCLDY    66  50  55 S18G24    30.03R
CROOKSTON      PTCLDY    66  52  59 S16G25    30.03S
FOSSTON        MOCLDY    64  52  63 S10       30.07S
DETROIT LAKES  MOCLDY    63  54  72 S6        30.08F
MOORHEAD       CLOUDY    64  54  68 S8        30.05F
PARK RAPIDS    PTCLDY    64  53  67 S8        30.09S
MAHNOMEN       FAIR      63  52  67 S7        30.07S
$$
MNZ006-009>011-018-025>026-240100-
   North Central Minnesota

CITY           SKY/WX    TMP DP  RH WIND       PRES   REMARKS
BAUDETTE       PTCLDY    67  51  56 S8        30.04S
FLAG ISLAND    CLEAR     63  55  77 S10       30.00R
INTL FALLS     CLEAR     65  51  60 S3        30.07S
6HR MIN TEMP:  65; 6HR MAX TEMP:  74;

WASKISH        MOCLDY    66  54  63 CALM      30.07R
BIG FORK       MOCLDY    64  54  68 SE5       30.11S
LONGVILLE      PTCLDY    64  54  68 S7        30.11R
GRAND RAPIDS   PTCLDY    64  50  59 S6        30.12R
CRANE LAKE     CLEAR     59  54  82 CALM      30.12S
ORR            CLEAR     64  46  52 CALM      30.09S
COOK           CLEAR     64  52  63 S3        30.13S
WALKER         FAIR      66  52  59 S7        30.08S
$$
MNZ012-019>021-037-240100-
   Northeast Minnesota

CITY           SKY/WX    TMP DP  RH WIND       PRES   REMARKS
DULUTH         MOCLDY    66  51  58 SE6       30.15S
6HR MIN TEMP:  66; 6HR MAX TEMP:  73;

ELY            CLEAR     64  48  55 S3        30.14S
HIBBING        MOCLDY    65  52  62 S6        30.13S
EVELETH        PTCLDY    63  48  59 S5        30.15S
DULUTH HARBOR  MOCLDY    59  55  88 NE5       30.15S
TWO HARBORS    PTCLDY    59  52  77 CALM      30.15R
SILVER BAY     CLEAR     57  55  94 CALM      30.15R
GRAND MARAIS     N/A     54  51  90 CALM      30.16F
G MARAIS ARPRT CLEAR     55  48  76 CALM      30.20S
$$
MNZ029>031-032-039>041-046>048-054>057-064-240100-
   West Central Minnesota

CITY           SKY/WX    TMP DP  RH WIND       PRES   REMARKS
FERGUS FALLS   CLOUDY    64  48  55 SE8       30.06S
WHEATON        CLOUDY    57  52  82 SE15G23   30.07R
MORRIS         CLOUDY    61  54  77 S18       30.08R
ALEXANDRIA     CLOUDY    66  51  58 S14G25    30.10S
ELBOW LAKE     CLOUDY    63  53  69 S21       30.07R
WADENA         MOCLDY    64  54  68 SE6       30.08F
GLENWOOD       CLOUDY    63  52  67 S17G26    30.11R
APPLETON       DRIZZLE   59  55  88 SE9       30.07F
BENSON         DRIZZLE   57  55  94 S12G17    30.10S
ORTONVILLE     RAIN      57  54  88 SE9       30.06S
MADISON        RAIN      61  57  88 SE10      30.06F
WILLMAR        LGT RAIN  61  55  82 CALM      30.12F
$$
MNZ033>034-036-042>043-049>051-058-059-240100-
   Central Minnesota

CITY           SKY/WX    TMP DP  RH WIND       PRES   REMARKS
ST CLOUD       MOCLDY    70  53  54 SE8       30.11S
6HR MIN TEMP:  70; 6HR MAX TEMP:  76;

SAUK CENTRE    CLOUDY    66  53  61 SE7       30.10R
PAYNESVILLE    RAIN      62  50  64 S10G16    30.12R
AITKIN         PTCLDY    66  54  63 S5        30.12S
PINE RIVER     PTCLDY    64  54  68 SE6       30.13S
BRAINERD       PTCLDY    64  53  67 SE5       30.11F
STAPLES        PTCLDY    64  52  63 SE6       30.09F
LONG PRAIRIE   CLOUDY    64  52  63 E6        30.10S
LITTLE FALLS   MOCLDY    64  52  63 SE7       30.11S
LITCHFIELD     CLOUDY    66  54  63 SW5       30.12R
BUFFALO        MOCLDY    67  50  54 SE6       30.13S
MAPLE LAKE     MOCLDY    68  55  63 SE5       30.12F
$$
MNZ037-044-045-052-053-240100-
   East Central Minnesota

CITY           SKY/WX    TMP DP  RH WIND       PRES   REMARKS
PRINCETON      MOCLDY    68  54  60 E5        30.13S
MORA           MOCLDY    64  52  63 SE3       30.16S
CAMBRIDGE      PTCLDY    68  54  60 CALM      30.12F
RUSH CITY      PTCLDY    64  52  63 SE3       30.15S
MOOSE LAKE     PTCLDY    64  52  63 S3        30.13S
HINCKLEY       FAIR      64  54  68 S6        30.15R
CLOQUET        MOCLDY    66  48  52 CALM      30.15S
MCGREGOR       PTCLDY    64  54  68 S5        30.14R
$$
MNZ071>073-080-081-089-090-097-098-240100-
   Southwest Minnesota

CITY           SKY/WX    TMP DP  RH WIND       PRES   REMARKS
MONTEVIDEO     RAIN      57  57 100 S8        30.09F
GRANITE FALLS  DRIZZLE   59  56  91 E6        30.09F
CANBY          RAIN      58  56  95 SE7       30.07S
MARSHALL       CLOUDY    61  54  77 SE9       30.06S
REDWOOD FALLS  CLOUDY    64  54  69 S20       30.10S
OLIVIA         CLOUDY    64  54  68 S10       30.10F
PIPESTONE      CLOUDY    61  54  77 S15       30.05S
WINDOM         CLOUDY    61  52  72 SE12G17   30.10S
WORTHINGTON    CLOUDY    61  52  72 S14G20    30.10R
JACKSON        CLOUDY    61  54  77 SE10      30.11F
TRACY          CLOUDY    62  52  68 S12G18    30.08S
SLAYTON        CLOUDY    60  52  74 SE12      30.08S
$$
MNZ065>067-074>077-082>085-091>093-240100-
   South Central Minnesota

CITY           SKY/WX    TMP DP  RH WIND       PRES   REMARKS
MANKATO        CLOUDY    68  46  45 S9        30.13S
NEW ULM        LGT RAIN  63  57  82 S12G17    30.12R
ST JAMES       CLOUDY    64  55  72 SE8       30.13F
FAIRMONT       CLOUDY    61  54  77 SE12      30.13F
GLENCOE        CLOUDY    69  49  49 SE6       30.11S
FARIBAULT      CLOUDY    70  46  43 SE7       30.15S
OWATONNA       CLOUDY    66  48  52 SE9       30.15S
WASECA         CLOUDY    63  45  51 SE6       30.16S
ALBERT LEA     CLOUDY    66  50  55 S8        30.16S
$$
MNZ078>079-086>088-094>096-240100-
   Southeast Minnesota

CITY           SKY/WX    TMP DP  RH WIND       PRES   REMARKS
ROCHESTER      CLOUDY    64  51  62 S7        30.20S
6HR MIN TEMP:  64; 6HR MAX TEMP:  72;

RED WING       PTCLDY    68  50  52 SE7       30.15F
STANTON        MOCLDY    68  50  52 SE6       30.14S
DODGE CENTER   CLOUDY    64  52  63 SE7       30.17F
WINONA         PTCLDY    66  52  59 CALM      30.19S
AUSTIN         CLOUDY    64  50  59 S6        30.17S
PRESTON        MOCLDY    64  55  72 S7        30.21R
$$
ABBREVIATIONS USED IN REMARKS
   TC - TEMPERATURES IN CELSIUS
  WCI - WIND CHILL INDEX
   HX - HEAT INDEX
  VSB - VISIBILITY
$$


USA.gov is the U.S. government's official web portal to all federal, state and local government web resources and services.